{"data":{"norad_id":56063,"epoch":"2026-05-25T00:41:17.559744Z","epoch_age_seconds":72277,"freshness":"FRESH","line1":"1 56063U 23043T   26145.02867546 -.00000015  00000+0 -67108-4 0  9991","line2":"2 56063  87.9265 248.5799 0002173  98.3315 261.8065 13.21825942155214","mean_motion":13.21825942,"eccentricity":0.0002173,"inclination_deg":87.9265,"raan_deg":248.5799,"arg_perigee_deg":98.3315,"mean_anomaly_deg":261.8065,"bstar":-6.7108e-5,"rev_number":15521,"period_min":108.94021324935,"perigee_km":1176.1116943712,"apogee_km":1179.3954844214,"semimajor_km":7555.8905893963,"source":"CELESTRAK","updated_at":"2026-05-25T13:38:22.703462Z"}}